パンスターズ彗星

C/2016 A1 ( PanSTARRS )

English version
Home page
Updated on November 20, 2018

---------------------------------------------------------------------

・ プロフィール

発見日 2016年1月1日
発見光度 19.3等
発見者 Pan-STARRS 1 telescope (Haleakala)

・ 写真集

・ 軌道要素

Epoch 2017 Nov. 23.0 TT = JDT 2458080.5
T 2017 Nov. 23.37193 TT                                 MPCW
q   5.3277681            (2000.0)            P               Q
z  -0.0003736      Peri.   10.32027     -0.53513304     +0.51121001
 +/-0.0000004      Node   128.17453     +0.70123299     -0.17512417
e   1.0019903      Incl.  121.18575     +0.47106785     +0.84142489
From 1625 observations 2016 Jan. 1-2018 Sept. 12, mean residual 0".4.

・ 星図

・ 光度変化

        m1 = 1.2 + 5 logΔ + 15.0 log r

---------------------------------------------------------------------

軌道要素はM.P.E.C. 2018-S50に掲載されたものです。
星図はステラナビゲータ Ver.10 (アストロアーツ) で作成したものです。
光度グラフはComet for Windowsで作成したものです。

---------------------------------------------------------------------

Copyright(C) Seiichi Yoshida (comet@aerith.net). All rights reserved.